Location: Nitra
(0.0000°N, 18.0833°E)
Time: 20:47:46
(UTC+01:00)

Vanguard 3 - Visible Passes

Search period start: 21 March 2023 00:00
Search period end: 31 March 2023 01:00
Orbit: 509 x 3249 km, 33.3° (Epoch: 21 March)

Date Brightness Start Highest point End Pass type
(mag) Time Alt. Az. Time Alt. Az. Time Alt. Az.
21 Mar 10.5 01:53:46 43° NNE 01:53:46 43° NNE 02:04:57 10° NE visible
21 Mar 10.6 03:58:10 27° NW 04:03:44 31° NNW 04:18:32 10° NNE visible
22 Mar 11.2 00:42:04 20° NE 00:42:04 20° NE 00:46:18 10° NE visible
22 Mar 10.4 02:46:28 43° NNW 02:46:28 43° NNW 03:01:38 10° NE visible
22 Mar 11.0 04:51:13 10° WNW 05:03:38 20° NNW 05:14:29 10° NNE visible
23 Mar 10.7 01:34:40 34° NNE 01:34:40 34° NNE 01:43:50 10° NE visible
23 Mar 10.7 03:39:03 27° NW 03:43:05 28° NNW 03:57:55 10° NNE visible
24 Mar 11.4 00:22:48 15° NE 00:22:48 15° NE 00:25:02 10° NE visible
24 Mar 10.6 02:27:11 37° N 02:27:11 37° N 02:40:36 10° NE visible
24 Mar 11.1 04:31:33 10° NW 04:43:24 19° NNW 04:54:22 10° NNE visible
25 Mar 11.0 01:15:14 28° NNE 01:15:14 28° NNE 01:22:31 10° NE visible
25 Mar 10.8 03:19:36 25° NW 03:22:29 26° NNW 03:37:10 10° NNE visible
26 Mar 11.5 00:03:13 11° NE 00:03:13 11° NE 00:03:34 10° NE visible
26 Mar 10.7 03:07:35 32° N 03:07:35 32° N 03:19:25 10° NNE visible
26 Mar 11.2 05:11:57 11° NW 05:23:11 18° NNW 05:34:14 10° NNE visible
26 Mar 10.1 21:08:09 10° S 21:08:37 11° S 21:08:37 11° S visible
27 Mar 11.1 01:55:31 22° NNE 01:55:31 22° NNE 02:01:01 10° NE visible
27 Mar 10.9 03:59:52 24° NNW 04:01:58 24° NNW 04:16:17 10° NNE visible
27 Mar 11.3 06:14:41 10° NNW 06:24:29 16° N 06:33:00 10° NNE visible
28 Mar 10.9 02:47:45 27° N 02:47:45 27° N 02:58:01 10° NNE visible
28 Mar 11.2 04:52:07 11° NW 05:02:59 18° N 05:14:04 10° NNE visible
28 Mar 9.7 20:48:18 10° S 20:49:47 14° SSE 20:49:47 14° SSE visible
29 Mar 11.3 01:35:36 18° NNE 01:35:36 18° NNE 01:39:21 10° NE visible
29 Mar 10.9 03:39:57 22° NNW 03:41:30 22° NNW 03:55:17 10° NNE visible
29 Mar 11.3 05:53:39 10° NNW 06:04:27 17° N 06:13:53 10° NE visible
29 Mar 10.0 21:41:51 10° SSW 21:42:38 14° SSW 21:42:38 14° SSW visible
30 Mar 11.0 02:27:45 24° N 02:27:45 24° N 02:36:28 10° NNE visible
30 Mar 11.2 04:32:05 11° NW 04:42:45 18° N 04:53:53 10° NNE visible
30 Mar 9.4 20:28:26 10° S 20:31:08 17° SSE 20:31:08 17° SSE visible
